Flag for Guatemala Weather past 2 weeks in Escuintla, Guatemala

Now
63 °F

Light rain. Mostly cloudy.


Feels Like: 63 °F
Forecast: 70 / 89 °F
Wind: 7 mph from Northeast

Location: Guatemala Aeropuertola Aurora

Current Time: Sep 22, 2014 at 11:19:59 PM

Latest Report: Sep 22, 2014 at 11:00 PM


Visibility: 5 mi

Pressure: 30.30 "Hg

Humidity: 94%

Dew point: 61 °F

Location of EscuintlaLocation

Historic Weather in Escuintla — Graph

°F

Escuintla temperature yesterday

Maximum temperature yesterday: 79 °F (at 1:00 PM)
Minimum temperature yesterday: 63 °F (at 6:00 AM)
Average temperature yesterday: 68 °F

Past Weeks' High & Low Weather Summary

 TemperatureHumidityPressure
High81 °F (Sep 18, 1:00 PM)100% (Sep 7, 11:00 PM)30.36 "Hg (Sep 7, 11:00 PM)
Low61 °F (Sep 8, 2:00 AM)45% (Sep 18, 2:00 PM)30.12 "Hg (Sep 11, 4:00 PM)
Average67 °F86%30.24 "Hg
* Reported Sep 7 10:00 PM — Sep 22 10:00 PM, Escuintla, Weather by CustomWeather, © 2014

Note: Actual official high and low records may vary slightly from our data, if they occured in-between our weather recording intervals... More about our weather records

Advertising

Escuintla weather history for previous 24 hours

 ConditionsComfort  
Time TempWeatherWind HumidityBarometerVisibility
10:00 PM
Sep 22
64 °FLight rain. Mostly cloudy.9 mph94%30.30 "Hg5 mi
9:00 PM66 °FLight rain. Mostly cloudy.9 mph94%30.30 "Hg5 mi
8:00 PM66 °FLight rain. Mostly cloudy.2 mph88%30.27 "HgN/A
7:00 PM66 °FPassing clouds.9 mph88%30.24 "HgN/A
6:00 PM68 °FThunderstorms. Partly cloudy.9 mph88%30.21 "HgN/A
5:00 PM70 °FBroken clouds.6 mph73%30.18 "HgN/A
4:00 PM75 °FThunderstorms. Scattered clouds.7 mph74%30.18 "HgN/A
3:00 PM70 °FThunderstorms. Broken clouds.5 mph73%30.21 "HgN/A
2:00 PM70 °FThunderstorms. Broken clouds.9 mph83%30.24 "HgN/A
1:30 PMN/AThunderstorms.9 mphN/AN/AN/A
1:00 PM77 °FThunderstorms. Scattered clouds.7 mph57%30.24 "HgN/A
12:00 PM77 °FBroken clouds.7 mph61%30.27 "HgN/A
11:00 AM75 °FPartly sunny.5 mph61%30.30 "HgN/A
10:00 AM73 °FPartly sunny.5 mph65%30.30 "HgN/A
9:00 AM68 °FPartly sunny.No wind83%30.33 "Hg5 mi
8:00 AM64 °FPartly sunny.No wind88%30.30 "Hg4 mi
7:00 AM61 °FScattered clouds.No wind94%30.30 "Hg4 mi
6:00 AM63 °FFog.No wind94%30.30 "Hg2 mi
5:00 AM63 °FPassing clouds.No wind100%30.30 "Hg4 mi
4:00 AM63 °FPassing clouds.No wind100%30.27 "Hg4 mi
3:00 AM63 °FPassing clouds.No wind100%30.27 "Hg5 mi
2:00 AM64 °FPassing clouds.No wind94%30.27 "HgN/A
1:00 AM64 °FPassing clouds.No wind94%30.30 "HgN/A
12:00 AM64 °FPassing clouds.No wind94%30.33 "HgN/A
11:00 PM
Sep 21
64 °FPassing clouds.5 mph94%30.33 "HgN/A
Weather by CustomWeather, © 2014

See weather overviewHow to use our weather pages